Location: *
(38.9555°S, 57.3572°E)
Time: 01:56:08
(UTC+00:00)

S3M - Pass Details

Date: 15 July 2020
Orbit: 950 x 1003 km, 83.0° (Epoch: 06 August)

Event Time Altitude Azimuth Distance (km) Brightness Sun altitude
Rises 14:46:14 0° 357° (N) 3,684 7.2 -18.8°
Reaches altitude 10° 14:48:44 10° 357° (N) 2,736 6.5 -19.3°
Maximum altitude 14:55:02 85° 85° (E) 991 3.9 -20.5°
Drops below altitude 10° 15:01:19 10° 172° (S) 2,733 6.2 -21.7°
Sets 15:03:49 0° 172° (S) 3,679 6.8 -22.2°
